<?xml version="1.0" encoding="UTF-8" standalone="yes"?>
<gpx version="1.1" creator="MagicMaps Scout"  xsi:schemaLocation="http://www.topografix.com/GPX/1/1 http://www.topografix.com/GPX/1/1/gpx.xsd http://www.garmin.com/xmlschemas/TrackPointExtension/v1 http://www.garmin.com/xmlschemas/TrackPointExtensionv1.xsd" xmlns="http://www.topografix.com/GPX/1/1" xmlns:xsi="http://www.w3.org/2001/XMLSchema-instance" xmlns:gpxtpx="http://www.garmin.com/xmlschemas/TrackPointExtension/v1"> 
<trk>
<name>Radweg_Kornwestheim-Stuttgart</name>
<trkseg>
<trkpt lat="48.856640" lon="9.180700"><ele>307</ele><time>2015-05-06T05:40:34Z</time></trkpt>
<trkpt lat="48.856520" lon="9.180900"><ele>320</ele><time>2015-05-06T05:40:34Z</time></trkpt>
<trkpt lat="48.856400" lon="9.181200"><ele>312</ele><time>2015-05-06T05:40:34Z</time></trkpt>
<trkpt lat="48.856260" lon="9.181590"><ele>311</ele><time>2015-05-06T05:40:34Z</time></trkpt>
<trkpt lat="48.856220" lon="9.182070"><ele>305</ele><time>2015-05-06T05:40:34Z</time></trkpt>
<trkpt lat="48.855800" lon="9.181840"><ele>302</ele><time>2015-05-06T05:40:34Z</time></trkpt>
<trkpt lat="48.855490" lon="9.181640"><ele>305</ele><time>2015-05-06T05:40:34Z</time></trkpt>
<trkpt lat="48.855190" lon="9.181460"><ele>304</ele><time>2015-05-06T05:40:34Z</time></trkpt>
<trkpt lat="48.854860" lon="9.181250"><ele>305</ele><time>2015-05-06T05:40:34Z</time></trkpt>
<trkpt lat="48.854480" lon="9.180990"><ele>302</ele><time>2015-05-06T05:40:34Z</time></trkpt>
<trkpt lat="48.854170" lon="9.180890"><ele>299</ele><time>2015-05-06T05:40:34Z</time></trkpt>
<trkpt lat="48.853990" lon="9.181280"><ele>297</ele><time>2015-05-06T05:40:34Z</time></trkpt>
<trkpt lat="48.853830" lon="9.181830"><ele>302</ele><time>2015-05-06T05:40:34Z</time></trkpt>
<trkpt lat="48.853690" lon="9.182300"><ele>300</ele><time>2015-05-06T05:40:34Z</time></trkpt>
<trkpt lat="48.853580" lon="9.182760"><ele>296</ele><time>2015-05-06T05:40:34Z</time></trkpt>
<trkpt lat="48.853410" lon="9.183270"><ele>297</ele><time>2015-05-06T05:40:34Z</time></trkpt>
<trkpt lat="48.853260" lon="9.183840"><ele>302</ele><time>2015-05-06T05:40:34Z</time></trkpt>
<trkpt lat="48.853130" lon="9.184340"><ele>292</ele><time>2015-05-06T05:40:34Z</time></trkpt>
<trkpt lat="48.853020" lon="9.184650"><ele>295</ele><time>2015-05-06T05:40:34Z</time></trkpt>
<trkpt lat="48.852690" lon="9.184650"><ele>298</ele><time>2015-05-06T05:40:34Z</time></trkpt>
<trkpt lat="48.852270" lon="9.184620"><ele>303</ele><time>2015-05-06T05:40:34Z</time></trkpt>
<trkpt lat="48.851820" lon="9.184510"><ele>301</ele><time>2015-05-06T05:40:34Z</time></trkpt>
<trkpt lat="48.851330" lon="9.184350"><ele>294</ele><time>2015-05-06T05:40:34Z</time></trkpt>
<trkpt lat="48.850800" lon="9.184280"><ele>291</ele><time>2015-05-06T05:40:34Z</time></trkpt>
<trkpt lat="48.850210" lon="9.184410"><ele>286</ele><time>2015-05-06T05:40:34Z</time></trkpt>
<trkpt lat="48.849630" lon="9.184610"><ele>285</ele><time>2015-05-06T05:40:34Z</time></trkpt>
<trkpt lat="48.849260" lon="9.184650"><ele>277</ele><time>2015-05-06T05:40:34Z</time></trkpt>
<trkpt lat="48.849050" lon="9.184980"><ele>280</ele><time>2015-05-06T05:40:34Z</time></trkpt>
<trkpt lat="48.848860" lon="9.185560"><ele>277</ele><time>2015-05-06T05:40:34Z</time></trkpt>
<trkpt lat="48.848580" lon="9.186110"><ele>278</ele><time>2015-05-06T05:40:34Z</time></trkpt>
<trkpt lat="48.848180" lon="9.186350"><ele>272</ele><time>2015-05-06T05:40:34Z</time></trkpt>
<trkpt lat="48.847740" lon="9.186620"><ele>273</ele><time>2015-05-06T05:40:34Z</time></trkpt>
<trkpt lat="48.847320" lon="9.187070"><ele>265</ele><time>2015-05-06T05:40:34Z</time></trkpt>
<trkpt lat="48.847060" lon="9.187750"><ele>266</ele><time>2015-05-06T05:40:34Z</time></trkpt>
<trkpt lat="48.846860" lon="9.188440"><ele>272</ele><time>2015-05-06T05:40:34Z</time></trkpt>
<trkpt lat="48.846590" lon="9.189060"><ele>263</ele><time>2015-05-06T05:40:34Z</time></trkpt>
<trkpt lat="48.846340" lon="9.189660"><ele>263</ele><time>2015-05-06T05:40:34Z</time></trkpt>
<trkpt lat="48.846090" lon="9.190270"><ele>262</ele><time>2015-05-06T05:40:34Z</time></trkpt>
<trkpt lat="48.845850" lon="9.190900"><ele>263</ele><time>2015-05-06T05:40:34Z</time></trkpt>
<trkpt lat="48.845660" lon="9.191460"><ele>259</ele><time>2015-05-06T05:40:34Z</time></trkpt>
<trkpt lat="48.845410" lon="9.192050"><ele>254</ele><time>2015-05-06T05:40:34Z</time></trkpt>
<trkpt lat="48.845140" lon="9.192710"><ele>253</ele><time>2015-05-06T05:40:34Z</time></trkpt>
<trkpt lat="48.844940" lon="9.193450"><ele>255</ele><time>2015-05-06T05:40:34Z</time></trkpt>
<trkpt lat="48.844640" lon="9.194100"><ele>251</ele><time>2015-05-06T05:40:34Z</time></trkpt>
<trkpt lat="48.844220" lon="9.194550"><ele>245</ele><time>2015-05-06T05:40:34Z</time></trkpt>
<trkpt lat="48.843940" lon="9.195130"><ele>245</ele><time>2015-05-06T05:40:34Z</time></trkpt>
<trkpt lat="48.843710" lon="9.195740"><ele>246</ele><time>2015-05-06T05:40:34Z</time></trkpt>
<trkpt lat="48.843480" lon="9.196310"><ele>247</ele><time>2015-05-06T05:40:34Z</time></trkpt>
<trkpt lat="48.843330" lon="9.197010"><ele>243</ele><time>2015-05-06T05:40:34Z</time></trkpt>
<trkpt lat="48.843230" lon="9.197700"><ele>240</ele><time>2015-05-06T05:40:34Z</time></trkpt>
<trkpt lat="48.843110" lon="9.198410"><ele>240</ele><time>2015-05-06T05:40:34Z</time></trkpt>
<trkpt lat="48.843150" lon="9.199120"><ele>238</ele><time>2015-05-06T05:40:34Z</time></trkpt>
<trkpt lat="48.843250" lon="9.199770"><ele>236</ele><time>2015-05-06T05:40:34Z</time></trkpt>
<trkpt lat="48.843450" lon="9.200460"><ele>236</ele><time>2015-05-06T05:40:34Z</time></trkpt>
<trkpt lat="48.843780" lon="9.201050"><ele>237</ele><time>2015-05-06T05:40:34Z</time></trkpt>
<trkpt lat="48.844050" lon="9.201640"><ele>236</ele><time>2015-05-06T05:40:34Z</time></trkpt>
<trkpt lat="48.844270" lon="9.202220"><ele>235</ele><time>2015-05-06T05:40:34Z</time></trkpt>
<trkpt lat="48.844460" lon="9.202780"><ele>231</ele><time>2015-05-06T05:40:34Z</time></trkpt>
<trkpt lat="48.844670" lon="9.203270"><ele>230</ele><time>2015-05-06T05:40:34Z</time></trkpt>
<trkpt lat="48.845000" lon="9.203700"><ele>228</ele><time>2015-05-06T05:40:34Z</time></trkpt>
<trkpt lat="48.845340" lon="9.204080"><ele>225</ele><time>2015-05-06T05:40:34Z</time></trkpt>
<trkpt lat="48.845580" lon="9.204680"><ele>223</ele><time>2015-05-06T05:40:34Z</time></trkpt>
<trkpt lat="48.845740" lon="9.205530"><ele>215</ele><time>2015-05-06T05:40:34Z</time></trkpt>
<trkpt lat="48.845940" lon="9.206300"><ele>221</ele><time>2015-05-06T05:40:34Z</time></trkpt>
<trkpt lat="48.846110" lon="9.206970"><ele>221</ele><time>2015-05-06T05:40:34Z</time></trkpt>
<trkpt lat="48.846220" lon="9.207620"><ele>225</ele><time>2015-05-06T05:40:34Z</time></trkpt>
<trkpt lat="48.846340" lon="9.208270"><ele>227</ele><time>2015-05-06T05:40:34Z</time></trkpt>
<trkpt lat="48.846410" lon="9.208870"><ele>227</ele><time>2015-05-06T05:40:34Z</time></trkpt>
<trkpt lat="48.846490" lon="9.209440"><ele>229</ele><time>2015-05-06T05:40:34Z</time></trkpt>
<trkpt lat="48.846630" lon="9.209960"><ele>224</ele><time>2015-05-06T05:40:34Z</time></trkpt>
<trkpt lat="48.846820" lon="9.210500"><ele>219</ele><time>2015-05-06T05:40:34Z</time></trkpt>
<trkpt lat="48.847060" lon="9.211000"><ele>218</ele><time>2015-05-06T05:40:34Z</time></trkpt>
<trkpt lat="48.847310" lon="9.211490"><ele>219</ele><time>2015-05-06T05:40:34Z</time></trkpt>
<trkpt lat="48.847500" lon="9.212020"><ele>220</ele><time>2015-05-06T05:40:34Z</time></trkpt>
<trkpt lat="48.847560" lon="9.212620"><ele>222</ele><time>2015-05-06T05:40:34Z</time></trkpt>
<trkpt lat="48.847570" lon="9.213230"><ele>214</ele><time>2015-05-06T05:40:34Z</time></trkpt>
<trkpt lat="48.847630" lon="9.213870"><ele>214</ele><time>2015-05-06T05:40:34Z</time></trkpt>
<trkpt lat="48.847730" lon="9.214520"><ele>212</ele><time>2015-05-06T05:40:34Z</time></trkpt>
<trkpt lat="48.847820" lon="9.215120"><ele>214</ele><time>2015-05-06T05:40:34Z</time></trkpt>
<trkpt lat="48.847840" lon="9.215730"><ele>208</ele><time>2015-05-06T05:40:34Z</time></trkpt>
<trkpt lat="48.847960" lon="9.216330"><ele>214</ele><time>2015-05-06T05:40:34Z</time></trkpt>
<trkpt lat="48.848030" lon="9.216840"><ele>210</ele><time>2015-05-06T05:40:34Z</time></trkpt>
<trkpt lat="48.848050" lon="9.217340"><ele>205</ele><time>2015-05-06T05:40:34Z</time></trkpt>
<trkpt lat="48.847980" lon="9.217820"><ele>205</ele><time>2015-05-06T05:40:34Z</time></trkpt>
<trkpt lat="48.847910" lon="9.218360"><ele>217</ele><time>2015-05-06T05:40:34Z</time></trkpt>
<trkpt lat="48.847820" lon="9.218920"><ele>221</ele><time>2015-05-06T05:40:34Z</time></trkpt>
<trkpt lat="48.847780" lon="9.219510"><ele>217</ele><time>2015-05-06T05:40:34Z</time></trkpt>
<trkpt lat="48.847650" lon="9.220120"><ele>214</ele><time>2015-05-06T05:40:34Z</time></trkpt>
<trkpt lat="48.847510" lon="9.220780"><ele>217</ele><time>2015-05-06T05:40:34Z</time></trkpt>
<trkpt lat="48.847340" lon="9.221410"><ele>215</ele><time>2015-05-06T05:40:34Z</time></trkpt>
<trkpt lat="48.847120" lon="9.221980"><ele>214</ele><time>2015-05-06T05:40:34Z</time></trkpt>
<trkpt lat="48.846960" lon="9.222590"><ele>219</ele><time>2015-05-06T05:40:34Z</time></trkpt>
<trkpt lat="48.846830" lon="9.223200"><ele>228</ele><time>2015-05-06T05:40:34Z</time></trkpt>
<trkpt lat="48.846590" lon="9.223790"><ele>227</ele><time>2015-05-06T05:40:34Z</time></trkpt>
<trkpt lat="48.846390" lon="9.224510"><ele>217</ele><time>2015-05-06T05:40:34Z</time></trkpt>
<trkpt lat="48.846280" lon="9.225220"><ele>219</ele><time>2015-05-06T05:40:34Z</time></trkpt>
<trkpt lat="48.846130" lon="9.225850"><ele>219</ele><time>2015-05-06T05:40:34Z</time></trkpt>
<trkpt lat="48.845990" lon="9.226440"><ele>219</ele><time>2015-05-06T05:40:34Z</time></trkpt>
<trkpt lat="48.845850" lon="9.227010"><ele>218</ele><time>2015-05-06T05:40:34Z</time></trkpt>
<trkpt lat="48.845570" lon="9.227480"><ele>218</ele><time>2015-05-06T05:40:34Z</time></trkpt>
<trkpt lat="48.845390" lon="9.228000"><ele>217</ele><time>2015-05-06T05:40:34Z</time></trkpt>
<trkpt lat="48.845140" lon="9.228430"><ele>217</ele><time>2015-05-06T05:40:34Z</time></trkpt>
<trkpt lat="48.845030" lon="9.228600"><ele>220</ele><time>2015-05-06T05:40:34Z</time></trkpt>
<trkpt lat="48.844880" lon="9.228950"><ele>219</ele><time>2015-05-06T05:40:34Z</time></trkpt>
<trkpt lat="48.844680" lon="9.229440"><ele>219</ele><time>2015-05-06T05:40:34Z</time></trkpt>
<trkpt lat="48.844420" lon="9.229920"><ele>217</ele><time>2015-05-06T05:40:34Z</time></trkpt>
<trkpt lat="48.844110" lon="9.230100"><ele>215</ele><time>2015-05-06T05:40:34Z</time></trkpt>
<trkpt lat="48.843780" lon="9.230030"><ele>215</ele><time>2015-05-06T05:40:34Z</time></trkpt>
<trkpt lat="48.843530" lon="9.229880"><ele>212</ele><time>2015-05-06T05:40:34Z</time></trkpt>
<trkpt lat="48.843210" lon="9.229810"><ele>206</ele><time>2015-05-06T05:40:34Z</time></trkpt>
<trkpt lat="48.842910" lon="9.229630"><ele>208</ele><time>2015-05-06T05:40:34Z</time></trkpt>
<trkpt lat="48.842820" lon="9.229420"><ele>206</ele><time>2015-05-06T05:40:34Z</time></trkpt>
<trkpt lat="48.842710" lon="9.229100"><ele>209</ele><time>2015-05-06T05:40:34Z</time></trkpt>
<trkpt lat="48.842560" lon="9.228730"><ele>214</ele><time>2015-05-06T05:40:34Z</time></trkpt>
<trkpt lat="48.842380" lon="9.228340"><ele>213</ele><time>2015-05-06T05:40:34Z</time></trkpt>
<trkpt lat="48.842220" lon="9.227880"><ele>215</ele><time>2015-05-06T05:40:34Z</time></trkpt>
<trkpt lat="48.842040" lon="9.227380"><ele>212</ele><time>2015-05-06T05:40:34Z</time></trkpt>
<trkpt lat="48.841880" lon="9.226910"><ele>210</ele><time>2015-05-06T05:40:34Z</time></trkpt>
<trkpt lat="48.841750" lon="9.226440"><ele>215</ele><time>2015-05-06T05:40:34Z</time></trkpt>
<trkpt lat="48.841640" lon="9.226010"><ele>210</ele><time>2015-05-06T05:40:34Z</time></trkpt>
<trkpt lat="48.841420" lon="9.225550"><ele>211</ele><time>2015-05-06T05:40:34Z</time></trkpt>
<trkpt lat="48.841240" lon="9.225120"><ele>214</ele><time>2015-05-06T05:40:34Z</time></trkpt>
<trkpt lat="48.841120" lon="9.224730"><ele>214</ele><time>2015-05-06T05:40:34Z</time></trkpt>
<trkpt lat="48.841020" lon="9.224340"><ele>215</ele><time>2015-05-06T05:40:34Z</time></trkpt>
<trkpt lat="48.840880" lon="9.223900"><ele>217</ele><time>2015-05-06T05:40:34Z</time></trkpt>
<trkpt lat="48.840710" lon="9.223500"><ele>214</ele><time>2015-05-06T05:40:34Z</time></trkpt>
<trkpt lat="48.840500" lon="9.223200"><ele>212</ele><time>2015-05-06T05:40:34Z</time></trkpt>
<trkpt lat="48.840390" lon="9.222730"><ele>211</ele><time>2015-05-06T05:40:34Z</time></trkpt>
<trkpt lat="48.840260" lon="9.222310"><ele>212</ele><time>2015-05-06T05:40:34Z</time></trkpt>
<trkpt lat="48.840210" lon="9.221910"><ele>216</ele><time>2015-05-06T05:40:34Z</time></trkpt>
<trkpt lat="48.840030" lon="9.221530"><ele>212</ele><time>2015-05-06T05:40:34Z</time></trkpt>
<trkpt lat="48.839890" lon="9.221060"><ele>209</ele><time>2015-05-06T05:40:34Z</time></trkpt>
<trkpt lat="48.839750" lon="9.220620"><ele>210</ele><time>2015-05-06T05:40:34Z</time></trkpt>
<trkpt lat="48.839580" lon="9.220160"><ele>209</ele><time>2015-05-06T05:40:34Z</time></trkpt>
<trkpt lat="48.839380" lon="9.219640"><ele>210</ele><time>2015-05-06T05:40:34Z</time></trkpt>
<trkpt lat="48.839200" lon="9.219170"><ele>211</ele><time>2015-05-06T05:40:34Z</time></trkpt>
<trkpt lat="48.839040" lon="9.218740"><ele>212</ele><time>2015-05-06T05:40:34Z</time></trkpt>
<trkpt lat="48.838880" lon="9.218380"><ele>211</ele><time>2015-05-06T05:40:34Z</time></trkpt>
<trkpt lat="48.838660" lon="9.218000"><ele>216</ele><time>2015-05-06T05:40:34Z</time></trkpt>
<trkpt lat="48.838510" lon="9.217580"><ele>215</ele><time>2015-05-06T05:40:34Z</time></trkpt>
<trkpt lat="48.838390" lon="9.217170"><ele>217</ele><time>2015-05-06T05:40:34Z</time></trkpt>
<trkpt lat="48.838290" lon="9.216760"><ele>213</ele><time>2015-05-06T05:40:34Z</time></trkpt>
<trkpt lat="48.838190" lon="9.216360"><ele>209</ele><time>2015-05-06T05:40:34Z</time></trkpt>
<trkpt lat="48.838090" lon="9.215950"><ele>214</ele><time>2015-05-06T05:40:34Z</time></trkpt>
<trkpt lat="48.837990" lon="9.215510"><ele>215</ele><time>2015-05-06T05:40:34Z</time></trkpt>
<trkpt lat="48.837870" lon="9.215090"><ele>215</ele><time>2015-05-06T05:40:34Z</time></trkpt>
<trkpt lat="48.837750" lon="9.214680"><ele>216</ele><time>2015-05-06T05:40:34Z</time></trkpt>
<trkpt lat="48.837630" lon="9.214240"><ele>218</ele><time>2015-05-06T05:40:34Z</time></trkpt>
<trkpt lat="48.837510" lon="9.213810"><ele>217</ele><time>2015-05-06T05:40:34Z</time></trkpt>
<trkpt lat="48.837390" lon="9.213410"><ele>215</ele><time>2015-05-06T05:40:34Z</time></trkpt>
<trkpt lat="48.837250" lon="9.212940"><ele>213</ele><time>2015-05-06T05:40:34Z</time></trkpt>
<trkpt lat="48.837130" lon="9.212530"><ele>214</ele><time>2015-05-06T05:40:34Z</time></trkpt>
<trkpt lat="48.836980" lon="9.212120"><ele>213</ele><time>2015-05-06T05:40:34Z</time></trkpt>
<trkpt lat="48.836800" lon="9.211710"><ele>212</ele><time>2015-05-06T05:40:34Z</time></trkpt>
<trkpt lat="48.836630" lon="9.211320"><ele>214</ele><time>2015-05-06T05:40:34Z</time></trkpt>
<trkpt lat="48.836430" lon="9.210890"><ele>213</ele><time>2015-05-06T05:40:34Z</time></trkpt>
<trkpt lat="48.836230" lon="9.210530"><ele>216</ele><time>2015-05-06T05:40:34Z</time></trkpt>
<trkpt lat="48.836030" lon="9.210210"><ele>216</ele><time>2015-05-06T05:40:34Z</time></trkpt>
<trkpt lat="48.835800" lon="9.209870"><ele>217</ele><time>2015-05-06T05:40:34Z</time></trkpt>
<trkpt lat="48.835580" lon="9.209570"><ele>218</ele><time>2015-05-06T05:40:34Z</time></trkpt>
<trkpt lat="48.835350" lon="9.209260"><ele>220</ele><time>2015-05-06T05:40:34Z</time></trkpt>
<trkpt lat="48.835100" lon="9.208950"><ele>219</ele><time>2015-05-06T05:40:34Z</time></trkpt>
<trkpt lat="48.834830" lon="9.208620"><ele>212</ele><time>2015-05-06T05:40:34Z</time></trkpt>
<trkpt lat="48.834530" lon="9.208360"><ele>214</ele><time>2015-05-06T05:40:34Z</time></trkpt>
<trkpt lat="48.834230" lon="9.208120"><ele>218</ele><time>2015-05-06T05:40:34Z</time></trkpt>
<trkpt lat="48.833900" lon="9.207920"><ele>210</ele><time>2015-05-06T05:40:34Z</time></trkpt>
<trkpt lat="48.833570" lon="9.207730"><ele>211</ele><time>2015-05-06T05:40:34Z</time></trkpt>
<trkpt lat="48.833250" lon="9.207570"><ele>212</ele><time>2015-05-06T05:40:34Z</time></trkpt>
<trkpt lat="48.832920" lon="9.207440"><ele>214</ele><time>2015-05-06T05:40:34Z</time></trkpt>
<trkpt lat="48.832630" lon="9.207320"><ele>218</ele><time>2015-05-06T05:40:34Z</time></trkpt>
<trkpt lat="48.832330" lon="9.207220"><ele>219</ele><time>2015-05-06T05:40:34Z</time></trkpt>
<trkpt lat="48.832030" lon="9.207100"><ele>216</ele><time>2015-05-06T05:40:34Z</time></trkpt>
<trkpt lat="48.831690" lon="9.207000"><ele>211</ele><time>2015-05-06T05:40:34Z</time></trkpt>
<trkpt lat="48.831300" lon="9.207030"><ele>211</ele><time>2015-05-06T05:40:34Z</time></trkpt>
<trkpt lat="48.830950" lon="9.207100"><ele>214</ele><time>2015-05-06T05:40:34Z</time></trkpt>
<trkpt lat="48.830600" lon="9.207190"><ele>209</ele><time>2015-05-06T05:40:34Z</time></trkpt>
<trkpt lat="48.830270" lon="9.207240"><ele>211</ele><time>2015-05-06T05:40:34Z</time></trkpt>
<trkpt lat="48.829920" lon="9.207290"><ele>210</ele><time>2015-05-06T05:40:34Z</time></trkpt>
<trkpt lat="48.829610" lon="9.207340"><ele>210</ele><time>2015-05-06T05:40:34Z</time></trkpt>
<trkpt lat="48.829310" lon="9.207380"><ele>213</ele><time>2015-05-06T05:40:34Z</time></trkpt>
<trkpt lat="48.829020" lon="9.207410"><ele>216</ele><time>2015-05-06T05:40:34Z</time></trkpt>
<trkpt lat="48.828730" lon="9.207460"><ele>216</ele><time>2015-05-06T05:40:34Z</time></trkpt>
<trkpt lat="48.828460" lon="9.207530"><ele>214</ele><time>2015-05-06T05:40:34Z</time></trkpt>
<trkpt lat="48.828150" lon="9.207620"><ele>215</ele><time>2015-05-06T05:40:34Z</time></trkpt>
<trkpt lat="48.827820" lon="9.207780"><ele>225</ele><time>2015-05-06T05:40:34Z</time></trkpt>
<trkpt lat="48.827530" lon="9.207980"><ele>222</ele><time>2015-05-06T05:40:34Z</time></trkpt>
<trkpt lat="48.827260" lon="9.208220"><ele>220</ele><time>2015-05-06T05:40:34Z</time></trkpt>
<trkpt lat="48.827060" lon="9.208470"><ele>220</ele><time>2015-05-06T05:40:34Z</time></trkpt>
<trkpt lat="48.826870" lon="9.208770"><ele>216</ele><time>2015-05-06T05:40:34Z</time></trkpt>
<trkpt lat="48.826650" lon="9.209080"><ele>213</ele><time>2015-05-06T05:40:34Z</time></trkpt>
<trkpt lat="48.826340" lon="9.209430"><ele>220</ele><time>2015-05-06T05:40:34Z</time></trkpt>
<trkpt lat="48.826120" lon="9.209670"><ele>214</ele><time>2015-05-06T05:40:34Z</time></trkpt>
<trkpt lat="48.825900" lon="9.209970"><ele>216</ele><time>2015-05-06T05:40:34Z</time></trkpt>
<trkpt lat="48.825750" lon="9.210320"><ele>209</ele><time>2015-05-06T05:40:34Z</time></trkpt>
<trkpt lat="48.825740" lon="9.210760"><ele>212</ele><time>2015-05-06T05:40:34Z</time></trkpt>
<trkpt lat="48.825820" lon="9.211290"><ele>214</ele><time>2015-05-06T05:40:34Z</time></trkpt>
<trkpt lat="48.825850" lon="9.211750"><ele>216</ele><time>2015-05-06T05:40:34Z</time></trkpt>
<trkpt lat="48.825920" lon="9.212270"><ele>208</ele><time>2015-05-06T05:40:34Z</time></trkpt>
<trkpt lat="48.825990" lon="9.212780"><ele>212</ele><time>2015-05-06T05:40:34Z</time></trkpt>
<trkpt lat="48.826020" lon="9.213250"><ele>211</ele><time>2015-05-06T05:40:34Z</time></trkpt>
<trkpt lat="48.825990" lon="9.213770"><ele>213</ele><time>2015-05-06T05:40:34Z</time></trkpt>
<trkpt lat="48.826010" lon="9.214400"><ele>212</ele><time>2015-05-06T05:40:34Z</time></trkpt>
<trkpt lat="48.826020" lon="9.214970"><ele>213</ele><time>2015-05-06T05:40:34Z</time></trkpt>
<trkpt lat="48.826010" lon="9.215460"><ele>220</ele><time>2015-05-06T05:40:34Z</time></trkpt>
<trkpt lat="48.826000" lon="9.215980"><ele>219</ele><time>2015-05-06T05:40:34Z</time></trkpt>
<trkpt lat="48.825980" lon="9.216480"><ele>207</ele><time>2015-05-06T05:40:34Z</time></trkpt>
<trkpt lat="48.825940" lon="9.216960"><ele>200</ele><time>2015-05-06T05:40:34Z</time></trkpt>
<trkpt lat="48.825880" lon="9.217440"><ele>202</ele><time>2015-05-06T05:40:34Z</time></trkpt>
<trkpt lat="48.825790" lon="9.217900"><ele>210</ele><time>2015-05-06T05:40:34Z</time></trkpt>
<trkpt lat="48.825710" lon="9.218340"><ele>206</ele><time>2015-05-06T05:40:34Z</time></trkpt>
<trkpt lat="48.825610" lon="9.218750"><ele>205</ele><time>2015-05-06T05:40:34Z</time></trkpt>
<trkpt lat="48.825500" lon="9.219160"><ele>206</ele><time>2015-05-06T05:40:34Z</time></trkpt>
<trkpt lat="48.825370" lon="9.219550"><ele>204</ele><time>2015-05-06T05:40:34Z</time></trkpt>
<trkpt lat="48.825230" lon="9.219950"><ele>211</ele><time>2015-05-06T05:40:34Z</time></trkpt>
<trkpt lat="48.825090" lon="9.220330"><ele>211</ele><time>2015-05-06T05:40:34Z</time></trkpt>
<trkpt lat="48.824910" lon="9.220770"><ele>209</ele><time>2015-05-06T05:40:34Z</time></trkpt>
<trkpt lat="48.824740" lon="9.221170"><ele>205</ele><time>2015-05-06T05:40:34Z</time></trkpt>
<trkpt lat="48.824560" lon="9.221560"><ele>214</ele><time>2015-05-06T05:40:34Z</time></trkpt>
<trkpt lat="48.824370" lon="9.221980"><ele>216</ele><time>2015-05-06T05:40:34Z</time></trkpt>
<trkpt lat="48.824160" lon="9.222430"><ele>212</ele><time>2015-05-06T05:40:34Z</time></trkpt>
<trkpt lat="48.823970" lon="9.222800"><ele>213</ele><time>2015-05-06T05:40:34Z</time></trkpt>
<trkpt lat="48.823770" lon="9.223160"><ele>216</ele><time>2015-05-06T05:40:34Z</time></trkpt>
<trkpt lat="48.823560" lon="9.223560"><ele>215</ele><time>2015-05-06T05:40:34Z</time></trkpt>
<trkpt lat="48.823350" lon="9.223910"><ele>214</ele><time>2015-05-06T05:40:34Z</time></trkpt>
<trkpt lat="48.823170" lon="9.224250"><ele>221</ele><time>2015-05-06T05:40:34Z</time></trkpt>
<trkpt lat="48.822960" lon="9.224620"><ele>218</ele><time>2015-05-06T05:40:34Z</time></trkpt>
<trkpt lat="48.822740" lon="9.224950"><ele>214</ele><time>2015-05-06T05:40:34Z</time></trkpt>
<trkpt lat="48.822530" lon="9.225240"><ele>215</ele><time>2015-05-06T05:40:34Z</time></trkpt>
<trkpt lat="48.822310" lon="9.225520"><ele>212</ele><time>2015-05-06T05:40:34Z</time></trkpt>
<trkpt lat="48.822070" lon="9.225840"><ele>215</ele><time>2015-05-06T05:40:34Z</time></trkpt>
<trkpt lat="48.821820" lon="9.226200"><ele>217</ele><time>2015-05-06T05:40:34Z</time></trkpt>
<trkpt lat="48.821580" lon="9.226440"><ele>216</ele><time>2015-05-06T05:40:34Z</time></trkpt>
<trkpt lat="48.821310" lon="9.226640"><ele>214</ele><time>2015-05-06T05:40:34Z</time></trkpt>
<trkpt lat="48.821030" lon="9.226830"><ele>209</ele><time>2015-05-06T05:40:34Z</time></trkpt>
<trkpt lat="48.820720" lon="9.226990"><ele>205</ele><time>2015-05-06T05:40:34Z</time></trkpt>
<trkpt lat="48.820420" lon="9.227110"><ele>207</ele><time>2015-05-06T05:40:34Z</time></trkpt>
<trkpt lat="48.820110" lon="9.227170"><ele>210</ele><time>2015-05-06T05:40:34Z</time></trkpt>
<trkpt lat="48.819800" lon="9.227230"><ele>213</ele><time>2015-05-06T05:40:34Z</time></trkpt>
<trkpt lat="48.819450" lon="9.227280"><ele>214</ele><time>2015-05-06T05:40:34Z</time></trkpt>
<trkpt lat="48.819150" lon="9.227290"><ele>214</ele><time>2015-05-06T05:40:34Z</time></trkpt>
<trkpt lat="48.818860" lon="9.227280"><ele>215</ele><time>2015-05-06T05:40:34Z</time></trkpt>
<trkpt lat="48.818560" lon="9.227210"><ele>222</ele><time>2015-05-06T05:40:34Z</time></trkpt>
<trkpt lat="48.818300" lon="9.227080"><ele>219</ele><time>2015-05-06T05:40:34Z</time></trkpt>
<trkpt lat="48.818030" lon="9.226900"><ele>211</ele><time>2015-05-06T05:40:34Z</time></trkpt>
<trkpt lat="48.817700" lon="9.226630"><ele>214</ele><time>2015-05-06T05:40:34Z</time></trkpt>
<trkpt lat="48.817390" lon="9.226340"><ele>221</ele><time>2015-05-06T05:40:34Z</time></trkpt>
<trkpt lat="48.817120" lon="9.226060"><ele>221</ele><time>2015-05-06T05:40:34Z</time></trkpt>
<trkpt lat="48.816900" lon="9.225730"><ele>219</ele><time>2015-05-06T05:40:34Z</time></trkpt>
<trkpt lat="48.816700" lon="9.225290"><ele>217</ele><time>2015-05-06T05:40:34Z</time></trkpt>
<trkpt lat="48.816530" lon="9.224850"><ele>215</ele><time>2015-05-06T05:40:34Z</time></trkpt>
<trkpt lat="48.816330" lon="9.224420"><ele>213</ele><time>2015-05-06T05:40:34Z</time></trkpt>
<trkpt lat="48.816110" lon="9.224000"><ele>226</ele><time>2015-05-06T05:40:34Z</time></trkpt>
<trkpt lat="48.815910" lon="9.223590"><ele>225</ele><time>2015-05-06T05:40:34Z</time></trkpt>
<trkpt lat="48.815700" lon="9.223200"><ele>223</ele><time>2015-05-06T05:40:34Z</time></trkpt>
<trkpt lat="48.815500" lon="9.222830"><ele>222</ele><time>2015-05-06T05:40:34Z</time></trkpt>
<trkpt lat="48.815310" lon="9.222470"><ele>220</ele><time>2015-05-06T05:40:34Z</time></trkpt>
<trkpt lat="48.815130" lon="9.222080"><ele>227</ele><time>2015-05-06T05:40:34Z</time></trkpt>
<trkpt lat="48.814920" lon="9.221830"><ele>224</ele><time>2015-05-06T05:40:34Z</time></trkpt>
<trkpt lat="48.814620" lon="9.221510"><ele>222</ele><time>2015-05-06T05:40:34Z</time></trkpt>
<trkpt lat="48.814340" lon="9.221230"><ele>220</ele><time>2015-05-06T05:40:34Z</time></trkpt>
<trkpt lat="48.814080" lon="9.220970"><ele>218</ele><time>2015-05-06T05:40:34Z</time></trkpt>
<trkpt lat="48.813760" lon="9.220730"><ele>226</ele><time>2015-05-06T05:40:34Z</time></trkpt>
<trkpt lat="48.813470" lon="9.220500"><ele>222</ele><time>2015-05-06T05:40:34Z</time></trkpt>
<trkpt lat="48.813210" lon="9.220290"><ele>217</ele><time>2015-05-06T05:40:34Z</time></trkpt>
<trkpt lat="48.812960" lon="9.220090"><ele>212</ele><time>2015-05-06T05:40:34Z</time></trkpt>
<trkpt lat="48.812650" lon="9.219870"><ele>216</ele><time>2015-05-06T05:40:34Z</time></trkpt>
<trkpt lat="48.812330" lon="9.219640"><ele>214</ele><time>2015-05-06T05:40:34Z</time></trkpt>
<trkpt lat="48.812020" lon="9.219370"><ele>217</ele><time>2015-05-06T05:40:34Z</time></trkpt>
<trkpt lat="48.811710" lon="9.219090"><ele>221</ele><time>2015-05-06T05:40:34Z</time></trkpt>
<trkpt lat="48.811430" lon="9.218810"><ele>217</ele><time>2015-05-06T05:40:34Z</time></trkpt>
<trkpt lat="48.811190" lon="9.218510"><ele>220</ele><time>2015-05-06T05:40:34Z</time></trkpt>
<trkpt lat="48.810950" lon="9.218200"><ele>224</ele><time>2015-05-06T05:40:34Z</time></trkpt>
<trkpt lat="48.810700" lon="9.217840"><ele>220</ele><time>2015-05-06T05:40:34Z</time></trkpt>
<trkpt lat="48.810460" lon="9.217460"><ele>219</ele><time>2015-05-06T05:40:34Z</time></trkpt>
<trkpt lat="48.810220" lon="9.217040"><ele>220</ele><time>2015-05-06T05:40:34Z</time></trkpt>
<trkpt lat="48.810000" lon="9.216660"><ele>223</ele><time>2015-05-06T05:40:34Z</time></trkpt>
<trkpt lat="48.809820" lon="9.216290"><ele>221</ele><time>2015-05-06T05:40:34Z</time></trkpt>
<trkpt lat="48.809640" lon="9.215930"><ele>217</ele><time>2015-05-06T05:40:34Z</time></trkpt>
<trkpt lat="48.809440" lon="9.215610"><ele>218</ele><time>2015-05-06T05:40:34Z</time></trkpt>
<trkpt lat="48.809150" lon="9.215210"><ele>216</ele><time>2015-05-06T05:40:34Z</time></trkpt>
<trkpt lat="48.808920" lon="9.214950"><ele>218</ele><time>2015-05-06T05:40:34Z</time></trkpt>
<trkpt lat="48.808590" lon="9.214610"><ele>214</ele><time>2015-05-06T05:40:34Z</time></trkpt>
<trkpt lat="48.808300" lon="9.214230"><ele>216</ele><time>2015-05-06T05:40:34Z</time></trkpt>
<trkpt lat="48.808030" lon="9.213880"><ele>215</ele><time>2015-05-06T05:40:34Z</time></trkpt>
<trkpt lat="48.807750" lon="9.213530"><ele>213</ele><time>2015-05-06T05:40:34Z</time></trkpt>
<trkpt lat="48.807520" lon="9.213240"><ele>219</ele><time>2015-05-06T05:40:34Z</time></trkpt>
<trkpt lat="48.807300" lon="9.212990"><ele>213</ele><time>2015-05-06T05:40:34Z</time></trkpt>
<trkpt lat="48.807090" lon="9.212730"><ele>217</ele><time>2015-05-06T05:40:34Z</time></trkpt>
<trkpt lat="48.806890" lon="9.212540"><ele>220</ele><time>2015-05-06T05:40:34Z</time></trkpt>
<trkpt lat="48.806660" lon="9.212300"><ele>222</ele><time>2015-05-06T05:40:34Z</time></trkpt>
<trkpt lat="48.806420" lon="9.212020"><ele>220</ele><time>2015-05-06T05:40:34Z</time></trkpt>
<trkpt lat="48.806240" lon="9.211810"><ele>221</ele><time>2015-05-06T05:40:34Z</time></trkpt>
<trkpt lat="48.806060" lon="9.211590"><ele>217</ele><time>2015-05-06T05:40:34Z</time></trkpt>
<trkpt lat="48.805880" lon="9.211300"><ele>216</ele><time>2015-05-06T05:40:34Z</time></trkpt>
<trkpt lat="48.805710" lon="9.210980"><ele>224</ele><time>2015-05-06T05:40:34Z</time></trkpt>
<trkpt lat="48.805520" lon="9.210680"><ele>220</ele><time>2015-05-06T05:40:34Z</time></trkpt>
<trkpt lat="48.805310" lon="9.210420"><ele>227</ele><time>2015-05-06T05:40:34Z</time></trkpt>
<trkpt lat="48.805060" lon="9.210110"><ele>221</ele><time>2015-05-06T05:40:34Z</time></trkpt>
<trkpt lat="48.804810" lon="9.209770"><ele>222</ele><time>2015-05-06T05:40:34Z</time></trkpt>
<trkpt lat="48.804600" lon="9.209430"><ele>221</ele><time>2015-05-06T05:40:34Z</time></trkpt>
<trkpt lat="48.804370" lon="9.209080"><ele>215</ele><time>2015-05-06T05:40:34Z</time></trkpt>
<trkpt lat="48.804140" lon="9.208730"><ele>214</ele><time>2015-05-06T05:40:34Z</time></trkpt>
<trkpt lat="48.803860" lon="9.208510"><ele>214</ele><time>2015-05-06T05:40:34Z</time></trkpt>
<trkpt lat="48.803480" lon="9.208350"><ele>215</ele><time>2015-05-06T05:40:34Z</time></trkpt>
<trkpt lat="48.803120" lon="9.208220"><ele>218</ele><time>2015-05-06T05:40:34Z</time></trkpt>
<trkpt lat="48.802890" lon="9.208010"><ele>219</ele><time>2015-05-06T05:40:34Z</time></trkpt>
<trkpt lat="48.802670" lon="9.207970"><ele>221</ele><time>2015-05-06T05:40:34Z</time></trkpt>
<trkpt lat="48.802690" lon="9.207770"><ele>214</ele><time>2015-05-06T05:40:34Z</time></trkpt>
<trkpt lat="48.802440" lon="9.207800"><ele>218</ele><time>2015-05-06T05:40:34Z</time></trkpt>
<trkpt lat="48.802300" lon="9.207720"><ele>224</ele><time>2015-05-06T05:40:34Z</time></trkpt>
<trkpt lat="48.802300" lon="9.207460"><ele>218</ele><time>2015-05-06T05:40:34Z</time></trkpt>
<trkpt lat="48.802290" lon="9.207180"><ele>223</ele><time>2015-05-06T05:40:34Z</time></trkpt>
<trkpt lat="48.802290" lon="9.206920"><ele>225</ele><time>2015-05-06T05:40:34Z</time></trkpt>
<trkpt lat="48.802300" lon="9.206680"><ele>222</ele><time>2015-05-06T05:40:34Z</time></trkpt>
<trkpt lat="48.802190" lon="9.206540"><ele>226</ele><time>2015-05-06T05:40:34Z</time></trkpt>
<trkpt lat="48.802000" lon="9.206510"><ele>230</ele><time>2015-05-06T05:40:34Z</time></trkpt>
<trkpt lat="48.801790" lon="9.206530"><ele>231</ele><time>2015-05-06T05:40:34Z</time></trkpt>
<trkpt lat="48.801580" lon="9.206590"><ele>229</ele><time>2015-05-06T05:40:34Z</time></trkpt>
<trkpt lat="48.801380" lon="9.206680"><ele>229</ele><time>2015-05-06T05:40:34Z</time></trkpt>
<trkpt lat="48.801220" lon="9.206780"><ele>234</ele><time>2015-05-06T05:40:34Z</time></trkpt>
<trkpt lat="48.801060" lon="9.206890"><ele>228</ele><time>2015-05-06T05:40:34Z</time></trkpt>
<trkpt lat="48.800900" lon="9.207000"><ele>234</ele><time>2015-05-06T05:40:34Z</time></trkpt>
<trkpt lat="48.800750" lon="9.207080"><ele>234</ele><time>2015-05-06T05:40:34Z</time></trkpt>
<trkpt lat="48.800590" lon="9.207160"><ele>234</ele><time>2015-05-06T05:40:34Z</time></trkpt>
<trkpt lat="48.800420" lon="9.207270"><ele>235</ele><time>2015-05-06T05:40:34Z</time></trkpt>
<trkpt lat="48.800240" lon="9.207410"><ele>240</ele><time>2015-05-06T05:40:34Z</time></trkpt>
<trkpt lat="48.800020" lon="9.207700"><ele>238</ele><time>2015-05-06T05:40:34Z</time></trkpt>
<trkpt lat="48.799700" lon="9.207990"><ele>241</ele><time>2015-05-06T05:40:34Z</time></trkpt>
<trkpt lat="48.799320" lon="9.207820"><ele>236</ele><time>2015-05-06T05:40:34Z</time></trkpt>
<trkpt lat="48.799160" lon="9.207230"><ele>236</ele><time>2015-05-06T05:40:34Z</time></trkpt>
<trkpt lat="48.799040" lon="9.206700"><ele>235</ele><time>2015-05-06T05:40:34Z</time></trkpt>
<trkpt lat="48.798850" lon="9.206220"><ele>236</ele><time>2015-05-06T05:40:34Z</time></trkpt>
<trkpt lat="48.798600" lon="9.205750"><ele>232</ele><time>2015-05-06T05:40:34Z</time></trkpt>
<trkpt lat="48.798380" lon="9.205350"><ele>229</ele><time>2015-05-06T05:40:34Z</time></trkpt>
<trkpt lat="48.798130" lon="9.205000"><ele>230</ele><time>2015-05-06T05:40:34Z</time></trkpt>
<trkpt lat="48.797870" lon="9.204560"><ele>233</ele><time>2015-05-06T05:40:34Z</time></trkpt>
<trkpt lat="48.797510" lon="9.204200"><ele>230</ele><time>2015-05-06T05:40:34Z</time></trkpt>
<trkpt lat="48.797080" lon="9.204140"><ele>228</ele><time>2015-05-06T05:40:34Z</time></trkpt>
<trkpt lat="48.796750" lon="9.203940"><ele>227</ele><time>2015-05-06T05:40:34Z</time></trkpt>
<trkpt lat="48.796540" lon="9.203420"><ele>228</ele><time>2015-05-06T05:40:34Z</time></trkpt>
<trkpt lat="48.796290" lon="9.202980"><ele>226</ele><time>2015-05-06T05:40:34Z</time></trkpt>
<trkpt lat="48.796130" lon="9.202480"><ele>225</ele><time>2015-05-06T05:40:34Z</time></trkpt>
<trkpt lat="48.795910" lon="9.202040"><ele>227</ele><time>2015-05-06T05:40:34Z</time></trkpt>
<trkpt lat="48.795760" lon="9.201630"><ele>225</ele><time>2015-05-06T05:40:34Z</time></trkpt>
<trkpt lat="48.795670" lon="9.201120"><ele>225</ele><time>2015-05-06T05:40:34Z</time></trkpt>
<trkpt lat="48.795550" lon="9.200610"><ele>229</ele><time>2015-05-06T05:40:34Z</time></trkpt>
<trkpt lat="48.795280" lon="9.200290"><ele>227</ele><time>2015-05-06T05:40:34Z</time></trkpt>
<trkpt lat="48.794990" lon="9.200110"><ele>228</ele><time>2015-05-06T05:40:34Z</time></trkpt>
<trkpt lat="48.794760" lon="9.199900"><ele>232</ele><time>2015-05-06T05:40:34Z</time></trkpt>
<trkpt lat="48.794520" lon="9.199550"><ele>229</ele><time>2015-05-06T05:40:34Z</time></trkpt>
<trkpt lat="48.794360" lon="9.199150"><ele>226</ele><time>2015-05-06T05:40:34Z</time></trkpt>
<trkpt lat="48.794130" lon="9.198690"><ele>227</ele><time>2015-05-06T05:40:34Z</time></trkpt>
<trkpt lat="48.793880" lon="9.198420"><ele>228</ele><time>2015-05-06T05:40:34Z</time></trkpt>
<trkpt lat="48.793670" lon="9.198100"><ele>233</ele><time>2015-05-06T05:40:34Z</time></trkpt>
<trkpt lat="48.793440" lon="9.197750"><ele>231</ele><time>2015-05-06T05:40:34Z</time></trkpt>
<trkpt lat="48.793220" lon="9.197370"><ele>232</ele><time>2015-05-06T05:40:34Z</time></trkpt>
<trkpt lat="48.793060" lon="9.196970"><ele>227</ele><time>2015-05-06T05:40:34Z</time></trkpt>
<trkpt lat="48.792890" lon="9.196590"><ele>225</ele><time>2015-05-06T05:40:34Z</time></trkpt>
<trkpt lat="48.792700" lon="9.196280"><ele>225</ele><time>2015-05-06T05:40:34Z</time></trkpt>
<trkpt lat="48.792480" lon="9.195900"><ele>228</ele><time>2015-05-06T05:40:34Z</time></trkpt>
<trkpt lat="48.792400" lon="9.195470"><ele>226</ele><time>2015-05-06T05:40:34Z</time></trkpt>
<trkpt lat="48.792320" lon="9.195040"><ele>230</ele><time>2015-05-06T05:40:34Z</time></trkpt>
<trkpt lat="48.792120" lon="9.194820"><ele>235</ele><time>2015-05-06T05:40:34Z</time></trkpt>
<trkpt lat="48.791830" lon="9.194710"><ele>232</ele><time>2015-05-06T05:40:34Z</time></trkpt>
<trkpt lat="48.791570" lon="9.194530"><ele>225</ele><time>2015-05-06T05:40:34Z</time></trkpt>
<trkpt lat="48.791350" lon="9.194120"><ele>231</ele><time>2015-05-06T05:40:34Z</time></trkpt>
<trkpt lat="48.791200" lon="9.193710"><ele>231</ele><time>2015-05-06T05:40:34Z</time></trkpt>
<trkpt lat="48.791000" lon="9.193280"><ele>232</ele><time>2015-05-06T05:40:34Z</time></trkpt>
<trkpt lat="48.790850" lon="9.192950"><ele>234</ele><time>2015-05-06T05:40:34Z</time></trkpt>
<trkpt lat="48.790680" lon="9.192710"><ele>237</ele><time>2015-05-06T05:40:34Z</time></trkpt>
<trkpt lat="48.790470" lon="9.192380"><ele>223</ele><time>2015-05-06T05:40:34Z</time></trkpt>
<trkpt lat="48.790240" lon="9.192020"><ele>220</ele><time>2015-05-06T05:40:34Z</time></trkpt>
<trkpt lat="48.789960" lon="9.191840"><ele>233</ele><time>2015-05-06T05:40:34Z</time></trkpt>
<trkpt lat="48.789730" lon="9.191580"><ele>236</ele><time>2015-05-06T05:40:34Z</time></trkpt>
<trkpt lat="48.789510" lon="9.191260"><ele>232</ele><time>2015-05-06T05:40:34Z</time></trkpt>
<trkpt lat="48.789300" lon="9.191050"><ele>235</ele><time>2015-05-06T05:40:34Z</time></trkpt>
<trkpt lat="48.789200" lon="9.190840"><ele>236</ele><time>2015-05-06T05:40:34Z</time></trkpt>
<trkpt lat="48.789130" lon="9.190580"><ele>241</ele><time>2015-05-06T05:40:34Z</time></trkpt>
<trkpt lat="48.788970" lon="9.190460"><ele>239</ele><time>2015-05-06T05:40:34Z</time></trkpt>
<trkpt lat="48.788810" lon="9.190340"><ele>243</ele><time>2015-05-06T05:40:34Z</time></trkpt>
<trkpt lat="48.788510" lon="9.190460"><ele>244</ele><time>2015-05-06T05:40:34Z</time></trkpt>
<trkpt lat="48.788050" lon="9.190280"><ele>239</ele><time>2015-05-06T05:40:34Z</time></trkpt>
<trkpt lat="48.787790" lon="9.189720"><ele>239</ele><time>2015-05-06T05:40:34Z</time></trkpt>
<trkpt lat="48.787540" lon="9.189380"><ele>227</ele><time>2015-05-06T05:40:34Z</time></trkpt>
<trkpt lat="48.787250" lon="9.189180"><ele>223</ele><time>2015-05-06T05:40:34Z</time></trkpt>
<trkpt lat="48.786950" lon="9.189060"><ele>224</ele><time>2015-05-06T05:40:34Z</time></trkpt>
<trkpt lat="48.786650" lon="9.189140"><ele>229</ele><time>2015-05-06T05:40:34Z</time></trkpt>
<trkpt lat="48.786450" lon="9.189340"><ele>231</ele><time>2015-05-06T05:40:34Z</time></trkpt>
<trkpt lat="48.786180" lon="9.189020"><ele>237</ele><time>2015-05-06T05:40:34Z</time></trkpt>
<trkpt lat="48.785790" lon="9.188730"><ele>234</ele><time>2015-05-06T05:40:34Z</time></trkpt>
<trkpt lat="48.785480" lon="9.188500"><ele>227</ele><time>2015-05-06T05:40:34Z</time></trkpt>
<trkpt lat="48.785260" lon="9.188240"><ele>232</ele><time>2015-05-06T05:40:34Z</time></trkpt>
<trkpt lat="48.785030" lon="9.187890"><ele>234</ele><time>2015-05-06T05:40:34Z</time></trkpt>
<trkpt lat="48.784800" lon="9.187510"><ele>234</ele><time>2015-05-06T05:40:34Z</time></trkpt>
<trkpt lat="48.784510" lon="9.187280"><ele>231</ele><time>2015-05-06T05:40:34Z</time></trkpt>
<trkpt lat="48.784180" lon="9.187220"><ele>239</ele><time>2015-05-06T05:40:34Z</time></trkpt>
<trkpt lat="48.783900" lon="9.187060"><ele>238</ele><time>2015-05-06T05:40:34Z</time></trkpt>
<trkpt lat="48.783680" lon="9.186720"><ele>238</ele><time>2015-05-06T05:40:34Z</time></trkpt>
<trkpt lat="48.783440" lon="9.186470"><ele>243</ele><time>2015-05-06T05:40:34Z</time></trkpt>
<trkpt lat="48.783170" lon="9.186350"><ele>238</ele><time>2015-05-06T05:40:34Z</time></trkpt>
<trkpt lat="48.782880" lon="9.186110"><ele>240</ele><time>2015-05-06T05:40:34Z</time></trkpt>
<trkpt lat="48.782670" lon="9.185830"><ele>238</ele><time>2015-05-06T05:40:34Z</time></trkpt>
<trkpt lat="48.782510" lon="9.185460"><ele>241</ele><time>2015-05-06T05:40:34Z</time></trkpt>
<trkpt lat="48.782400" lon="9.185230"><ele>235</ele><time>2015-05-06T05:40:34Z</time></trkpt>
<trkpt lat="48.782270" lon="9.185000"><ele>244</ele><time>2015-05-06T05:40:34Z</time></trkpt>
<trkpt lat="48.782160" lon="9.184830"><ele>243</ele><time>2015-05-06T05:40:34Z</time></trkpt>
<trkpt lat="48.782010" lon="9.184680"><ele>234</ele><time>2015-05-06T05:40:34Z</time></trkpt>
<trkpt lat="48.781880" lon="9.184590"><ele>242</ele><time>2015-05-06T05:40:34Z</time></trkpt>
<trkpt lat="48.781670" lon="9.184350"><ele>240</ele><time>2015-05-06T05:40:34Z</time></trkpt>
<trkpt lat="48.781700" lon="9.183810"><ele>240</ele><time>2015-05-06T05:40:34Z</time></trkpt>
<trkpt lat="48.781820" lon="9.183330"><ele>239</ele><time>2015-05-06T05:40:34Z</time></trkpt>
<trkpt lat="48.781750" lon="9.183020"><ele>239</ele><time>2015-05-06T05:40:34Z</time></trkpt>
<trkpt lat="48.781580" lon="9.182720"><ele>238</ele><time>2015-05-06T05:40:34Z</time></trkpt>
<trkpt lat="48.781400" lon="9.182440"><ele>238</ele><time>2015-05-06T05:40:34Z</time></trkpt>
<trkpt lat="48.781170" lon="9.182220"><ele>243</ele><time>2015-05-06T05:40:34Z</time></trkpt>
<trkpt lat="48.780970" lon="9.182040"><ele>241</ele><time>2015-05-06T05:40:34Z</time></trkpt>
<trkpt lat="48.780710" lon="9.181770"><ele>246</ele><time>2015-05-06T05:40:34Z</time></trkpt>
<trkpt lat="48.780440" lon="9.181520"><ele>247</ele><time>2015-05-06T05:40:34Z</time></trkpt>
<trkpt lat="48.780270" lon="9.181310"><ele>250</ele><time>2015-05-06T05:40:34Z</time></trkpt>
<trkpt lat="48.780280" lon="9.181020"><ele>247</ele><time>2015-05-06T05:40:34Z</time></trkpt>
<trkpt lat="48.780360" lon="9.180820"><ele>241</ele><time>2015-05-06T05:40:34Z</time></trkpt>
<trkpt lat="48.780520" lon="9.180460"><ele>257</ele><time>2015-05-06T05:40:34Z</time></trkpt>
<trkpt lat="48.780560" lon="9.180140"><ele>264</ele><time>2015-05-06T05:40:34Z</time></trkpt>
<trkpt lat="48.780490" lon="9.179830"><ele>266</ele><time>2015-05-06T05:40:34Z</time></trkpt>
<trkpt lat="48.780290" lon="9.179590"><ele>264</ele><time>2015-05-06T05:40:34Z</time></trkpt>
<trkpt lat="48.780080" lon="9.179420"><ele>270</ele><time>2015-05-06T05:40:34Z</time></trkpt>
<trkpt lat="48.779800" lon="9.179140"><ele>260</ele><time>2015-05-06T05:40:34Z</time></trkpt>
<trkpt lat="48.779770" lon="9.178910"><ele>255</ele><time>2015-05-06T05:40:34Z</time></trkpt>
<trkpt lat="48.779830" lon="9.178640"><ele>250</ele><time>2015-05-06T05:40:34Z</time></trkpt>
<trkpt lat="48.779890" lon="9.178230"><ele>255</ele><time>2015-05-06T05:40:34Z</time></trkpt>
<trkpt lat="48.779970" lon="9.177830"><ele>248</ele><time>2015-05-06T05:40:34Z</time></trkpt>
<trkpt lat="48.780050" lon="9.177490"><ele>245</ele><time>2015-05-06T05:40:34Z</time></trkpt>
<trkpt lat="48.780140" lon="9.177080"><ele>253</ele><time>2015-05-06T05:40:34Z</time></trkpt>
<trkpt lat="48.779960" lon="9.176850"><ele>258</ele><time>2015-05-06T05:40:34Z</time></trkpt>
<trkpt lat="48.779570" lon="9.176680"><ele>270</ele><time>2015-05-06T05:40:34Z</time></trkpt>
<trkpt lat="48.779340" lon="9.176490"><ele>274</ele><time>2015-05-06T05:40:34Z</time></trkpt>
<trkpt lat="48.779300" lon="9.176210"><ele>258</ele><time>2015-05-06T05:40:34Z</time></trkpt>
<trkpt lat="48.779440" lon="9.176030"><ele>209</ele><time>2015-05-06T05:40:34Z</time></trkpt>
<trkpt lat="48.779180" lon="9.175670"><ele>255</ele><time>2015-05-06T05:40:34Z</time></trkpt>
<trkpt lat="48.779080" lon="9.175230"><ele>257</ele><time>2015-05-06T05:40:34Z</time></trkpt>
<trkpt lat="48.779120" lon="9.174680"><ele>254</ele><time>2015-05-06T05:40:34Z</time></trkpt>
<trkpt lat="48.779230" lon="9.174150"><ele>250</ele><time>2015-05-06T05:40:34Z</time></trkpt>
<trkpt lat="48.779370" lon="9.173990"><ele>250</ele><time>2015-05-06T05:40:34Z</time></trkpt>
<trkpt lat="48.779610" lon="9.173660"><ele>252</ele><time>2015-05-06T05:40:34Z</time></trkpt>
<trkpt lat="48.779740" lon="9.173340"><ele>253</ele><time>2015-05-06T05:40:34Z</time></trkpt>
<trkpt lat="48.779840" lon="9.173090"><ele>253</ele><time>2015-05-06T05:40:34Z</time></trkpt>
<trkpt lat="48.779460" lon="9.172270"><ele>253</ele><time>2015-05-06T05:40:34Z</time></trkpt>
<trkpt lat="48.779610" lon="9.172160"><ele>253</ele><time>2015-05-06T05:40:34Z</time></trkpt>
<trkpt lat="48.779530" lon="9.171800"><ele>252</ele><time>2015-05-06T05:40:34Z</time></trkpt>
<trkpt lat="48.779480" lon="9.171560"><ele>252</ele><time>2015-05-06T05:40:34Z</time></trkpt>
</trkseg>
</trk>
</gpx>
